Weather in Krasnokholmskiy

Russia / Republic of Bashkortostan     55°59′00″N   55°02′55″E
temp.,
°C
wind,
m/s
gust,
m/s
humid.,
%
clouds,
%
prec.,
mm/h
press.,
hPa
HPBL,
m
28 february, sun
sun2823:00−11ese61194100 0.9 1002399
02:00−13e5995100 0.2 1001221
05:00−12ene589599 0.5 1002242
08:00−13ne4895100 0.4 1002296
11:00−13ne589394 0.5 1003354
14:00−10nne579298 0.1 1004429
17:00−9n589299 0.3 1005510
20:00−11n599490 0.1 1008275
1 march, mon
mon123:00−13nne489487 0.2 1010232
02:00−13nne379593 0.1 1011215
05:00−15n369590 0.2 1013184
08:00−17n369686 0.1 1014138
11:00−15n359385 0.1 1017303
14:00−13n238896 0.1 1017448
17:00−12nw239198 0.1 1018339
20:00−16w3497100 0.1 101861
2 march, tue
tue223:00−19wsw349884 0.1 101839
02:00−21sw3510073 0.0 101680
05:00−21s489884 0.0 1014183
08:00−19s61095100 0.0 1011280
11:00−16s71295100 0.3 1008389
14:00−11s71293100 0.6 1005597
17:00−10ssw71292100 0.9 1002595
20:00−9s71294100 0.8 1000529
3 march, wed
wed323:00−7s71294100 1.7 999436
02:00−5s5896100 0.4 998250
05:00−2wsw5996100 0.9 998413
08:00−3wnw479599 0.1 998396
11:00−5wsw469597 0.2 999274
14:00−3w479394 0.1 1000476
17:00−3w589091 0.2 1001633
20:00−6wnw499398 0.1 1002326
4 march, thu
thu423:00−9wnw489499 0.1 1004164
02:00−12w479666 0.0 1004126
05:00−13w469765 0.0 100587
08:00−14wsw479784 0.1 1005129
11:00−10sw489491 0.1 1005317
14:00−7sw599297 0.1 1003532
17:00−5ssw6119499 0.3 1001727
20:00−6ssw81494100 1.1 998780